Tracking 25734 objects as of 26-May-2022
HD Live streaming from Space Station
objects crossing your sky now

COSMOS 2251 DEB

Track COSMOS 2251 DEB now!
10-day predictions


NORAD ID: 35674
Int'l Code: 1993-036APR
Perigee: 686.4 km
Apogee: 871.5 km
Inclination: 74.1 °
Period: 100.3 minutes
Semi major axis: 7149 km
RCS: 0.0076 m2 (small)
Launch date: June 16, 1993
Source: Commonwealth of Independent States (former USSR) (CIS)
Launch site: PLESETSK MISSILE AND SPACE COMPLEX (PKMTR)

Note: This is SATELLITE DEBRIS
aabbcc
Your satellite tracking list
Your tracking list is empty




NASA's NSSDC Master Catalog

Two Line Element Set (TLE):
1 35674U 93036APR 22145.55031291  .00002757  00000-0  87121-3 0  9999
2 35674  74.0676 203.4470 0129472 220.4174 138.7307 14.35974318673945
Source of the keplerian elements: AFSPC